User: anonymous   Login
Location: Unspecified
(0.0000°N, 0.0000°E)
Time: 10:02:10
(UTC+00:00)
Language:

JUGNU - Orbit

View from above orbital plane
View from above orbital plane
View from above satellite
View from above satellite

Ground track
Ground track

The orbit data is extracted from the following two-line orbital elements,

1 37839U 11058B   18016.98305991 +.00000311 +00000-0 +24113-4 0  9995
2 37839 019.9600 234.1188 0018997 020.2142 124.1728 14.12606626323859
Epoch (UTC): 16 January 2018 23:35:36
Eccentricity: 0.0018997
inclination: 19.9600°
perigee height: 837 km
apogee height: 864 km
right ascension of ascending node: 234.1188°
argument of perigee: 20.2142°
revolutions per day: 14.12606626
mean anomaly at epoch: 124.1728°
orbit number at epoch: 32385

The dashed part of the orbit path shows where the satellite is in the earth's shadow,  

DLR